TimeCST,TemperatureF,Dew PointF,Humidity,Sea Level PressureIn,VisibilityMPH,Wind Direction,Wind SpeedMPH,Gust SpeedMPH,PrecipitationIn,Events,Conditions,WindDirDegrees,DateUTC
12:11 AM,32.0,26.6,80,30.02,0.2,Calm,Calm,-,N/A,,Haze,0,2012-11-21 06:11:00
12:31 AM,32.0,26.6,80,30.01,0.2,Calm,Calm,-,N/A,,Haze,0,2012-11-21 06:31:00
12:52 AM,32.0,26.6,80,30.00,0.2,Calm,Calm,-,N/A,,Haze,0,2012-11-21 06:52:00
1:11 AM,32.0,26.6,80,29.99,0.2,Calm,Calm,-,N/A,,Haze,0,2012-11-21 07:11:00
1:31 AM,32.0,28.4,87,29.99,0.2,Calm,Calm,-,N/A,Fog,Fog,0,2012-11-21 07:31:00
1:52 AM,32.0,28.4,87,29.98,0.2,Calm,Calm,-,N/A,Fog,Fog,0,2012-11-21 07:52:00
2:11 AM,33.8,28.4,81,29.98,0.2,Calm,Calm,-,N/A,,Haze,0,2012-11-21 08:11:00
2:32 AM,33.8,28.4,81,29.97,0.2,Calm,Calm,-,N/A,,Haze,0,2012-11-21 08:32:00
2:51 AM,32.0,28.4,87,29.97,0.2,Calm,Calm,-,N/A,Fog,Fog,0,2012-11-21 08:51:00
3:11 AM,32.0,26.6,80,29.95,0.2,NE,3.5,-,N/A,Snow,Light Snow,40,2012-11-21 09:11:00
3:31 AM,32.0,26.6,80,29.96,0.2,Calm,Calm,-,N/A,,Haze,0,2012-11-21 09:31:00
3:51 AM,32.0,26.6,80,29.95,0.2,Calm,Calm,-,N/A,,Haze,0,2012-11-21 09:51:00
4:11 AM,32.0,26.6,80,29.94,0.2,NNW,3.5,-,N/A,,Haze,340,2012-11-21 10:11:00
4:32 AM,32.0,26.6,80,29.93,0.2,North,3.5,-,N/A,,Haze,360,2012-11-21 10:32:00
4:51 AM,32.0,26.6,80,29.93,0.2,Calm,Calm,-,N/A,,Haze,0,2012-11-21 10:51:00
5:11 AM,32.0,26.6,80,29.93,0.2,Calm,Calm,-,N/A,,Haze,0,2012-11-21 11:11:00
5:32 AM,32.0,26.6,80,29.92,0.2,Calm,Calm,-,N/A,,Haze,0,2012-11-21 11:32:00
5:51 AM,30.2,26.6,86,29.92,0.2,Calm,Calm,-,N/A,Fog,Light Freezing Fog,0,2012-11-21 11:51:00
6:11 AM,30.2,26.6,86,29.92,0.2,Calm,Calm,-,N/A,,Haze,0,2012-11-21 12:11:00
6:32 AM,30.2,26.6,86,29.91,0.5,Calm,Calm,-,N/A,Fog,Light Freezing Fog,0,2012-11-21 12:32:00
6:51 AM,30.2,24.8,80,29.92,0.8,Calm,Calm,-,N/A,,Haze,0,2012-11-21 12:51:00
7:11 AM,30.2,24.8,80,29.91,1.8,Calm,Calm,-,N/A,,Haze,0,2012-11-21 13:11:00
7:32 AM,30.2,24.8,80,29.91,2.0,Calm,Calm,-,N/A,,Haze,0,2012-11-21 13:32:00
7:51 AM,28.4,24.8,86,29.91,1.5,Calm,Calm,-,N/A,,Haze,0,2012-11-21 13:51:00
8:11 AM,30.2,24.8,80,29.91,2.0,Calm,Calm,-,N/A,,Haze,0,2012-11-21 14:11:00
8:31 AM,30.2,26.6,86,29.91,1.5,Calm,Calm,-,N/A,,Haze,0,2012-11-21 14:31:00
8:51 AM,32.0,26.6,80,29.92,1.8,Calm,Calm,-,N/A,,Haze,0,2012-11-21 14:51:00
9:12 AM,33.8,28.4,81,29.91,2.0,Calm,Calm,-,N/A,,Haze,0,2012-11-21 15:12:00
9:31 AM,33.8,28.4,81,29.91,1.8,Calm,Calm,-,N/A,,Haze,0,2012-11-21 15:31:00
9:51 AM,35.6,30.2,81,29.91,2.5,Calm,Calm,-,N/A,,Haze,0,2012-11-21 15:51:00
10:12 AM,37.4,33.8,87,29.90,4.0,Calm,Calm,-,N/A,,Haze,0,2012-11-21 16:12:00
10:31 AM,39.2,33.8,81,29.90,4.0,Calm,Calm,-,N/A,,Haze,0,2012-11-21 16:31:00
10:51 AM,39.2,35.6,87,29.90,5.0,Calm,Calm,-,N/A,,Haze,0,2012-11-21 16:51:00
11:12 AM,41.0,35.6,81,29.89,7.0,SSW,3.5,-,N/A,,Clear,210,2012-11-21 17:12:00
11:31 AM,42.8,37.4,81,29.88,10.0,South,4.6,-,N/A,,Clear,190,2012-11-21 17:31:00
11:51 AM,44.6,37.4,76,29.87,10.0,South,4.6,-,N/A,,Clear,190,2012-11-21 17:51:00
12:12 PM,44.6,35.6,71,29.87,10.0,SSW,3.5,-,N/A,,Clear,200,2012-11-21 18:12:00
12:31 PM,44.6,37.4,76,29.86,10.0,SSW,4.6,-,N/A,,Clear,200,2012-11-21 18:31:00
12:51 PM,46.4,37.4,71,29.86,10.0,South,3.5,-,N/A,,Clear,190,2012-11-21 18:51:00
1:12 PM,46.4,37.4,71,29.85,10.0,Calm,Calm,-,N/A,,Clear,0,2012-11-21 19:12:00
1:31 PM,46.4,37.4,71,29.84,10.0,Calm,Calm,-,N/A,,Clear,0,2012-11-21 19:31:00
1:51 PM,44.6,35.6,71,29.85,10.0,SE,4.6,-,N/A,,Clear,140,2012-11-21 19:51:00
2:17 PM,44.6,35.6,71,29.84,10.0,SE,4.6,-,N/A,,Clear,140,2012-11-21 20:17:00
2:31 PM,44.6,35.6,71,29.85,10.0,SSE,3.5,-,N/A,,Clear,160,2012-11-21 20:31:00
2:51 PM,44.6,35.6,71,29.84,10.0,SSE,3.5,-,N/A,,Clear,160,2012-11-21 20:51:00
3:12 PM,44.6,37.4,76,29.84,10.0,Calm,Calm,-,N/A,,Clear,0,2012-11-21 21:12:00
3:31 PM,44.6,37.4,76,29.83,10.0,Calm,Calm,-,N/A,,Clear,0,2012-11-21 21:31:00
3:56 PM,42.8,35.6,76,29.83,10.0,Calm,Calm,-,N/A,,Clear,0,2012-11-21 21:56:00
4:11 PM,42.8,35.6,76,29.83,10.0,Calm,Calm,-,N/A,,Clear,0,2012-11-21 22:11:00
4:31 PM,41.0,35.6,81,29.83,10.0,Calm,Calm,-,N/A,,Clear,0,2012-11-21 22:31:00
4:52 PM,39.2,33.8,81,29.83,10.0,Calm,Calm,-,N/A,,Clear,0,2012-11-21 22:52:00
5:11 PM,37.4,32.0,81,29.82,7.0,Calm,Calm,-,N/A,,Clear,0,2012-11-21 23:11:00
5:32 PM,33.8,28.4,81,29.82,7.0,Calm,Calm,-,N/A,,Clear,0,2012-11-21 23:32:00
5:51 PM,33.8,28.4,81,29.82,5.0,Calm,Calm,-,N/A,,Haze,0,2012-11-21 23:51:00
6:12 PM,32.0,26.6,80,29.81,7.0,NE,3.5,-,N/A,,Clear,40,2012-11-22 00:12:00
6:31 PM,33.8,28.4,81,29.80,4.0,North,4.6,-,N/A,,Haze,10,2012-11-22 00:31:00
6:51 PM,33.8,28.4,81,29.79,2.0,North,4.6,-,N/A,,Haze,10,2012-11-22 00:51:00
7:12 PM,30.2,26.6,86,29.78,3.0,Calm,Calm,-,N/A,,Haze,0,2012-11-22 01:12:00
7:31 PM,30.2,26.6,86,29.78,2.5,NNE,4.6,-,N/A,,Haze,20,2012-11-22 01:31:00
7:51 PM,30.2,26.6,86,29.77,5.0,NNE,4.6,-,N/A,,Haze,30,2012-11-22 01:51:00
8:12 PM,33.8,28.4,81,29.76,7.0,NNE,3.5,-,N/A,,Clear,20,2012-11-22 02:12:00
8:31 PM,30.2,26.6,86,29.76,5.0,NNE,3.5,-,N/A,,Clear,20,2012-11-22 02:31:00
8:51 PM,30.2,26.6,86,29.75,5.0,NNE,4.6,-,N/A,,Haze,20,2012-11-22 02:51:00
9:12 PM,32.0,26.6,80,29.74,7.0,NNE,4.6,-,N/A,,Clear,20,2012-11-22 03:12:00
9:31 PM,30.2,26.6,86,29.73,5.0,NNE,5.8,-,N/A,,Haze,20,2012-11-22 03:31:00
9:51 PM,33.8,28.4,81,29.72,7.0,NNE,4.6,-,N/A,,Clear,20,2012-11-22 03:51:00
10:12 PM,33.8,26.6,75,29.70,5.0,NE,3.5,-,N/A,,Haze,40,2012-11-22 04:12:00
10:31 PM,33.8,28.4,81,29.69,5.0,NNE,3.5,-,N/A,,Haze,20,2012-11-22 04:31:00
10:51 PM,30.2,26.6,86,29.68,4.0,Calm,Calm,-,N/A,,Clear,0,2012-11-22 04:51:00
11:11 PM,30.2,26.6,86,29.67,4.0,NNE,4.6,-,N/A,,Haze,20,2012-11-22 05:11:00
11:31 PM,33.8,28.4,81,29.66,5.0,NE,5.8,-,N/A,,Haze,40,2012-11-22 05:31:00
11:51 PM,33.8,28.4,81,29.65,5.0,NNE,4.6,-,N/A,,Haze,20,2012-11-22 05:51:00